Location: Ermatingen
(47.6706°N, 9.0857°E)
Time: 04:17:07
(UTC+00:00)

Cosmos 1707 - Pass Details

Date: 18 September 2020
Orbit: 515 x 530 km, 82.5° (Epoch: 29 October)

Event Time Altitude Azimuth Distance (km) Brightness Sun altitude
Rises 19:16:00 0° 344° (NNW) 2,653 6.9 -18.3°
Reaches altitude 10° 19:18:13 10° 337° (NNW) 1,759 6.0 -18.6°
Maximum altitude 19:21:50 40° 267° (W) 772 4.0 -19.2°
Drops below altitude 10° 19:25:26 10° 197° (SSW) 1,740 5.3 -19.7°
Enters shadow 19:26:00 - 194° (SSW) 1,965 5.5 -19.8°
